CHUANG XIN 1 (CZ-1)

Satellite information

Favourite Embed

Satellite Type and Status

PAYLOADIN ORBIT

Key statistics

Satellite CHUANG XIN 1 (CZ-1) at a glance.

Uptime

7869

Days in orbit

Revolutions

≈ 14.5

Per day

Orbit

SSO

Sun Synchronous Orbit

Inclination

98.6

Latest

Satellite identification and parameters

Extended collection of information and parameters for CHUANG XIN 1 (CZ-1).

Object identification

Identified? True

Debris? False

Object name: CHUANG XIN 1 (CZ-1)

International designator: 2003-049B

Object number (NORAD): 28058

Object ID (CCSDS): 28058

Country: PEOPLES REPUBLIC OF CHINA (PRC)

Current information (Y/N): Y

RCS size: MEDIUM

Orbital parameters

Period: 99.428 minutes

Inclination: 98.5503 deg

SMA: 7109.394 km

Apoapsis: 739.903 km

Periapsis: 722.615 km

RAAN: 16.9014 deg

Eccentricy: 0.0012159

Argument of periapsis: 341.7708 deg

Mean anomaly: 18.3047 deg

Mean motion: 14.48284547 rev/day

Mean motion (dot): 0.00000376 rev/day2

B* drag term: 0.00011289 1/REarth

Two-line elements (TLE)

Creation date: May 7, 2025, 3:14 a.m.

Reference frame: TEME

Reference center: EARTH

Epoch: May 6, 2025, 3:18 p.m. UTC

TLE line 0: 0 CHUANG XIN 1 (CZ-1)

TLE line 1: 1 28058U 03049B 25126.63783256 .00000376 00000-0 11289-3 0 9995

TLE line 2: 2 28058 98.5503 16.9014 0012159 341.7708 18.3047 14.48284547137421

Live tracking on map

Real-time ground track for satellite CHUANG XIN 1 (CZ-1).

In-orbit conjunctions

A list of the most updated potential collisions computed for object CHUANG XIN 1 (CZ-1).

Target Orbit TCA Probability of collision Miss distance Type
IRIDIUM 33 DEB LEO 2025-04-18 04:58:53 0.0005659935 160.0 (m) DEBRIS
NOAA 16 DEB SSO 2024-12-31 14:21:45 0.001180707 40.0 (m) DEBRIS
CZ-6A DEB SSO 2024-06-17 01:19:38 0.0001001807 470.0 (m) DEBRIS
CZ-2C DEB SSO 2024-05-31 18:43:28 0.0001420301 977.0 (m) DEBRIS
FENGYUN 1C DEB SSO 2024-05-29 07:10:41 0.0001892733 400.0 (m) DEBRIS

Associated space launch

The satellite is China's first operational civilian remote-sensing satellite, specifically designed for the Chinese Ministry of Land and Resources (MLR).

CHUANG XIN 1 (CZ-1) was lifted into orbit during the mission ‘Long March 4B | Zi Yuan 1-2’, on board a Long March 4B space rocket.

The launch took place on Oct. 21, 2003, 3:16 a.m. from Launch Complex 7.

For more information about the launch, click the button.

Launch to space Long March 4B | Zi Yuan 1-2
Long March 4B | Zi Yuan 1-2

Agency: N/A

Status: Launch Successful

Launch date: Oct. 21, 2003, 3:16 a.m. UTC

Rocket: Long March 4B

Launch pad: Launch Complex 7

Location: Taiyuan Satellite Launch Center, People's Republic of China

...

Latest news about this satellite

There are no fresh news available about this satellite. Check back as we update our databases every day.


Newsletter sign-up

Weekly statistics, charts and insights to help you stay on top of the space industry.